Date String (YYYY-MM-DD hh:mm:ss) UTC,Instrument flags,Ambient pressure (hPa),Sample flow (lpm),Bypass flow (lpm),Sample temperature (°C),Ambient temperature (°C),ASC tube jacket temperature (°C),LED temperature (°C),Box temperature (°C),Sample RH (%),Span deviation,Mass concentration (μg/m³),Mass concentration (μg/m³),Mass concentration (μg/m³)
DateTimeUTC,F1_M11,P_M11,Q1_M11,Q2_M11,T1_M11,T2_M11,T3_M11,T4_M11,T5_M11,U1_M11,ZSPAN_M11,X0_M11,X2_M11,X1_M11
2022-07-01 12:00:00,,0830.8,5.00,0.00,30.2,29.1,00.0,39.0,32.1,25.7,0000.0,0009.84,0003.44,0002.39
2022-07-01 12:01:00,,0830.8,5.00,0.00,30.2,29.1,00.0,39.0,32.1,25.7,0000.0,0009.67,0003.47,0002.39
2022-07-01 12:02:00,,0830.8,4.99,0.00,30.2,29.1,00.0,39.0,32.1,25.6,0000.0,0009.64,0003.47,0002.40
2022-07-01 12:03:00,,0830.8,4.99,0.00,30.2,29.1,00.0,39.0,32.1,25.5,0000.0,0009.48,0003.42,0002.40
2022-07-01 12:04:00,,0830.8,5.01,0.00,30.2,29.2,00.0,39.0,32.1,25.4,0000.0,0009.56,0003.41,0002.38
2022-07-01 12:05:00,,0830.9,5.00,0.00,30.2,29.2,00.0,39.1,32.1,25.4,0000.0,0009.55,0003.43,0002.39
2022-07-01 12:06:00,,0830.9,5.00,0.00,30.2,29.2,00.0,39.1,32.1,25.4,0000.0,0008.60,0003.42,0002.38
2022-07-01 12:07:00,,0830.9,4.99,0.00,30.2,29.2,00.0,39.1,32.1,25.4,0000.0,0008.16,0003.41,0002.35
2022-07-01 12:08:00,,0830.9,5.00,0.00,30.3,29.2,00.0,39.1,32.1,25.3,0000.0,0007.95,0003.41,0002.33
2022-07-01 12:09:00,,0830.9,4.99,0.00,30.3,29.2,00.0,39.1,32.1,25.4,0000.0,0008.65,0003.42,0002.33
2022-07-01 12:10:00,,0830.9,5.00,0.00,30.3,29.2,00.0,39.1,32.2,25.5,0000.0,0008.55,0003.41,0002.31
2022-07-01 12:11:00,,0831.0,5.00,0.00,30.3,29.3,00.0,39.1,32.2,25.5,0000.0,0008.11,0003.39,0002.30
2022-07-01 12:12:00,,0830.9,5.00,0.00,30.3,29.3,00.0,39.1,32.2,25.5,0000.0,0008.08,0003.32,0002.29
2022-07-01 12:13:00,,0830.9,5.00,0.00,30.3,29.3,00.0,39.1,32.2,25.4,0000.0,0008.09,0003.31,0002.27
2022-07-01 12:14:00,,0830.9,5.00,0.00,30.3,29.3,00.0,39.1,32.2,25.4,0000.0,0008.18,0003.34,0002.26
2022-07-01 12:15:00,,0831.0,4.99,0.00,30.3,29.3,00.0,39.1,32.2,25.6,0000.0,0008.59,0003.34,0002.27
2022-07-01 12:16:00,,0831.0,5.00,0.00,30.3,29.3,00.0,39.1,32.2,25.6,0000.0,0008.67,0003.31,0002.27
2022-07-01 12:17:00,,0831.0,5.00,0.00,30.4,29.3,00.0,39.1,32.2,25.6,0000.0,0008.79,0003.33,0002.28
2022-07-01 12:18:00,,0831.1,4.99,0.00,30.4,29.3,00.0,39.1,32.2,25.7,0000.0,0009.12,0003.37,0002.31
2022-07-01 12:19:00,,0831.1,5.01,0.00,30.4,29.3,00.0,39.2,32.2,25.8,0000.0,0009.37,0003.42,0002.34
2022-07-01 12:20:00,,0831.1,5.00,0.00,30.4,29.3,00.0,39.2,32.2,25.7,0000.0,0008.70,0003.44,0002.34
2022-07-01 12:21:00,,0831.0,5.00,0.00,30.4,29.3,00.0,39.2,32.2,26.0,0000.0,0009.92,0003.50,0002.36
2022-07-01 12:22:00,,0831.0,4.99,0.00,30.4,29.3,00.0,39.2,32.2,26.1,0000.0,0010.36,0003.55,0002.40
2022-07-01 12:23:00,,0831.0,5.00,0.00,30.4,29.3,00.0,39.2,32.2,26.5,0000.0,0010.46,0003.61,0002.45
2022-07-01 12:24:00,,0831.0,4.99,0.00,30.4,29.3,00.0,39.2,32.3,27.1,0000.0,0010.61,0003.71,0002.52
2022-07-01 12:25:00,,0831.0,5.01,0.00,30.4,29.3,00.0,39.2,32.3,26.8,0000.0,0011.48,0003.79,0002.57
2022-07-01 12:26:00,,0831.0,5.00,0.00,30.4,29.4,00.0,39.2,32.3,26.4,0000.0,0011.78,0003.87,0002.61
2022-07-01 12:27:00,,0831.0,5.00,0.00,30.4,29.4,00.0,39.2,32.3,26.2,0000.0,0012.19,0003.95,0002.62
2022-07-01 12:28:00,,0831.0,5.00,0.00,30.4,29.4,00.0,39.2,32.3,26.7,0000.0,0012.70,0003.96,0002.66
2022-07-01 12:29:00,,0831.0,5.01,0.00,30.4,29.4,00.0,39.2,32.3,27.0,0000.0,0012.65,0003.96,0002.70
2022-07-01 12:30:00,,0831.0,5.01,0.00,30.4,29.4,00.0,39.2,32.3,27.1,0000.0,0012.31,0003.98,0002.77
2022-07-01 12:31:00,,0831.0,5.01,0.00,30.4,29.4,00.0,39.2,32.3,27.1,0000.0,0012.17,0004.01,0002.85
2022-07-01 12:32:00,,0831.0,4.99,0.00,30.4,29.4,00.0,39.2,32.3,27.0,0000.0,0011.71,0004.04,0002.92
2022-07-01 12:33:00,,0831.0,5.00,0.00,30.4,29.4,00.0,39.3,32.3,27.1,0000.0,0011.36,0004.04,0002.98
2022-07-01 12:34:00,,0831.0,5.01,0.00,30.5,29.4,00.0,39.3,32.3,27.1,0000.0,0011.20,0004.05,0003.01
2022-07-01 12:35:00,,0831.0,5.00,0.00,30.5,29.4,00.0,39.3,32.3,27.0,0000.0,0011.35,0003.97,0003.00
2022-07-01 12:36:00,,0831.0,4.99,0.00,30.5,29.4,00.0,39.3,32.3,26.9,0000.0,0010.87,0003.94,0003.02
2022-07-01 12:37:00,,0831.0,5.00,0.00,30.5,29.4,00.0,39.3,32.3,26.9,0000.0,0010.57,0003.96,0003.05
2022-07-01 12:38:00,,0831.1,5.00,0.00,30.5,29.4,00.0,39.3,32.3,26.7,0000.0,0010.76,0003.94,0003.11
2022-07-01 12:39:00,,0831.1,5.00,0.00,30.5,29.4,00.0,39.3,32.4,26.5,0000.0,0010.81,0003.97,0003.13
2022-07-01 12:40:00,,0831.1,5.00,0.00,30.5,29.5,00.0,39.3,32.4,26.4,0000.0,0011.09,0004.00,0003.14
2022-07-01 12:41:00,,0831.1,5.00,0.00,30.5,29.5,00.0,39.3,32.4,26.5,0000.0,0012.10,0004.04,0003.12
2022-07-01 12:42:00,,0831.2,5.00,0.00,30.5,29.5,00.0,39.3,32.4,26.5,0000.0,0012.84,0004.09,0003.13
2022-07-01 12:43:00,,0831.2,4.99,0.00,30.5,29.5,00.0,39.3,32.4,26.4,0000.0,0012.76,0004.10,0003.12
2022-07-01 12:44:00,,0831.2,5.00,0.00,30.5,29.5,00.0,39.3,32.4,26.5,0000.0,0014.15,0004.16,0003.10
2022-07-01 12:45:00,,0831.2,5.00,0.00,30.5,29.5,00.0,39.3,32.4,26.8,0000.0,0014.88,0004.18,0003.11
2022-07-01 12:46:00,,0831.2,5.00,0.00,30.5,29.5,00.0,39.3,32.4,26.9,0000.0,0015.13,0004.26,0003.12
2022-07-01 12:47:00,,0831.2,5.00,0.00,30.5,29.5,00.0,39.4,32.4,27.1,0000.0,0015.15,0004.33,0003.14
2022-07-01 12:48:00,,0831.2,5.00,0.00,30.6,29.5,00.0,39.4,32.4,27.3,0000.0,0015.08,0004.31,0003.17
2022-07-01 12:49:00,,0831.2,4.98,0.00,30.6,29.5,00.0,39.4,32.4,27.3,0000.0,0014.69,0004.35,0003.19
2022-07-01 12:50:00,,0831.2,5.01,0.00,30.6,29.5,00.0,39.4,32.4,27.3,0000.0,0014.18,0004.37,0003.22
2022-07-01 12:51:00,,0831.2,5.00,0.00,30.6,29.5,00.0,39.4,32.4,27.3,0000.0,0013.78,0004.36,0003.25
2022-07-01 12:52:00,,0831.2,5.01,0.00,30.6,29.5,00.0,39.4,32.4,27.5,0000.0,0012.83,0004.36,0003.28
2022-07-01 12:53:00,,0831.2,5.00,0.00,30.6,29.5,00.0,39.4,32.4,27.4,0000.0,0012.82,0004.32,0003.29
2022-07-01 12:54:00,,0831.2,5.00,0.00,30.6,29.6,00.0,39.4,32.4,27.3,0000.0,0013.15,0004.31,0003.31
2022-07-01 12:55:00,,0831.2,5.01,0.00,30.6,29.6,00.0,39.4,32.4,27.2,0000.0,0012.13,0004.29,0003.35
2022-07-01 12:56:00,,0831.2,5.01,0.00,30.6,29.6,00.0,39.4,32.4,27.2,0000.0,0011.15,0004.27,0003.36
2022-07-01 12:57:00,,0831.2,4.99,0.00,30.6,29.6,00.0,39.4,32.4,27.3,0000.0,0010.65,0004.22,0003.38
2022-07-01 12:58:00,,0831.2,5.01,0.00,30.6,29.6,00.0,39.4,32.5,27.2,0000.0,0010.24,0004.15,0003.39
2022-07-01 12:59:00,,0831.2,4.99,0.00,30.6,29.6,00.0,39.4,32.5,27.4,0000.0,0009.90,0004.14,0003.39
